7 * 24
多渠道服务支持
STARLINK-5896是美国SpaceX公司星链星座的一员,于2023年3月17日发射升空。星链计划旨在建设全球覆盖的低轨卫星互联网,为全球提供高速低延迟宽带服务。作为低轨互联网卫星,该卫星运行于近地轨道,通过星座组网实现全球无缝互联网覆盖,支持偏远地区联网、移动终端直连等多种场景,服务覆盖全球多数国家和地区,是星链大规模组网过程中的重要组成部分。
美国
(US)
| 数据来源 | 国际轨道数据 |
| 星历时间: | 2026-09-12T10:20:02+0800 12小时前 查看轨道信息 |
| 半长轴: | 6950.214km |
| 偏心率: | 0.000263 |
| 轨道倾角: | 70.002° |
| 近地点辐角 | 267.481° |
| 升交点赤经 | 174.403° |
| 平近点角 | 92.605° |
| 近地点: | 570.249km |
| 远地点: | 573.905km |
| 周期: | 96.107分钟 |
| 每日圈数: | 14.983234 |